Time,TemperatureF,DewpointF,PressureIn,WindDirection,WindDirectionDegrees,WindSpeedMPH,WindSpeedGustMPH,Humidity,HourlyPrecipIn,Conditions,Clouds,dailyrainin,SoftwareType,DateUTC
2013-03-02 00:00:00,10.4,8.3,30.28,NE,38,0.0,0.0,91,0.00,,,0.01,Wunderground v.1.15,2013-03-02 06:00:00,
2013-03-02 00:05:00,10.3,8.2,30.28,NE,38,0.0,0.0,91,0.00,,,0.00,Wunderground v.1.15,2013-03-02 06:05:00,
2013-03-02 00:15:00,10.2,8.1,30.28,NE,38,0.0,0.0,91,0.00,,,0.00,Wunderground v.1.15,2013-03-02 06:15:00,
2013-03-02 00:20:00,10.2,8.1,30.28,ENE,74,0.0,0.0,91,0.00,,,0.00,Wunderground v.1.15,2013-03-02 06:20:00,
2013-03-02 00:24:00,10.8,9.2,30.28,ENE,74,0.0,0.0,93,0.00,,,0.00,Wunderground v.1.15,2013-03-02 06:24:00,
2013-03-02 00:29:00,11.8,10.4,30.28,ENE,74,0.0,1.0,94,0.00,,,0.00,Wunderground v.1.15,2013-03-02 06:29:00,
2013-03-02 00:34:00,12.7,11.3,30.29,ENE,74,0.0,1.0,94,0.00,,,0.00,Wunderground v.1.15,2013-03-02 06:34:00,
2013-03-02 00:39:00,13.2,11.6,30.29,ENE,74,0.0,0.0,93,0.00,,,0.00,Wunderground v.1.15,2013-03-02 06:39:00,
2013-03-02 00:44:00,13.4,11.5,30.29,ENE,74,0.0,0.0,92,0.00,,,0.00,Wunderground v.1.15,2013-03-02 06:44:00,
2013-03-02 00:49:00,13.5,11.4,30.29,ENE,74,0.0,0.0,91,0.00,,,0.00,Wunderground v.1.15,2013-03-02 06:49:00,
2013-03-02 00:54:00,13.5,11.4,30.29,ENE,74,0.0,0.0,91,0.00,,,0.00,Wunderground v.1.15,2013-03-02 06:54:00,
2013-03-02 01:00:00,13.5,11.4,30.29,ENE,74,0.0,0.0,91,0.00,,,0.00,Wunderground v.1.15,2013-03-02 07:00:00,
2013-03-02 01:04:00,13.5,11.1,30.29,ENE,74,0.0,0.0,90,0.00,,,0.00,Wunderground v.1.15,2013-03-02 07:04:00,
2013-03-02 01:09:00,13.6,11.2,30.29,ENE,74,0.0,0.0,90,0.00,,,0.00,Wunderground v.1.15,2013-03-02 07:09:00,
2013-03-02 01:14:00,13.8,11.2,30.29,NE,37,0.0,0.0,89,0.00,,,0.00,Wunderground v.1.15,2013-03-02 07:14:00,
2013-03-02 01:19:00,13.9,11.3,30.29,NE,37,0.0,0.0,89,0.00,,,0.00,Wunderground v.1.15,2013-03-02 07:19:00,
2013-03-02 01:24:00,13.9,11.0,30.29,NE,37,0.0,0.0,88,0.00,,,0.00,Wunderground v.1.15,2013-03-02 07:24:00,
2013-03-02 01:29:00,13.8,10.6,30.29,NE,37,0.0,0.0,87,0.00,,,0.00,Wunderground v.1.15,2013-03-02 07:29:00,
2013-03-02 01:34:00,13.6,10.5,30.29,NE,37,0.0,2.0,87,0.00,,,0.00,Wunderground v.1.15,2013-03-02 07:34:00,
2013-03-02 01:39:00,13.4,10.3,30.29,NE,37,0.0,2.0,87,0.00,,,0.00,Wunderground v.1.15,2013-03-02 07:39:00,
2013-03-02 01:45:00,13.2,10.1,30.29,NE,37,0.0,2.0,87,0.00,,,0.00,Wunderground v.1.15,2013-03-02 07:45:00,
2013-03-02 01:50:00,12.9,9.8,30.30,NE,37,0.0,2.0,87,0.00,,,0.00,Wunderground v.1.15,2013-03-02 07:50:00,
2013-03-02 01:55:00,12.6,9.5,30.29,NE,37,0.0,2.0,87,0.00,,,0.00,Wunderground v.1.15,2013-03-02 07:55:00,
2013-03-02 02:00:00,12.3,9.2,30.29,NE,37,0.0,0.0,87,0.00,,,0.00,Wunderground v.1.15,2013-03-02 08:00:00,
2013-03-02 03:30:00,11.0,8.1,30.28,NNE,19,0.0,0.0,88,0.00,,,0.00,Wunderground v.1.15,2013-03-02 09:30:00,
2013-03-02 03:35:00,11.0,7.9,30.28,NNE,32,0.0,0.0,87,0.00,,,0.00,Wunderground v.1.15,2013-03-02 09:35:00,
2013-03-02 03:40:00,11.1,8.0,30.28,NNE,13,0.0,0.0,87,0.00,,,0.00,Wunderground v.1.15,2013-03-02 09:40:00,
2013-03-02 03:45:00,11.1,8.0,30.28,NNE,13,0.0,0.0,87,0.00,,,0.00,Wunderground v.1.15,2013-03-02 09:45:00,
2013-03-02 03:50:00,11.1,8.0,30.28,NNE,13,0.0,0.0,87,0.00,,,0.00,Wunderground v.1.15,2013-03-02 09:50:00,
2013-03-02 03:55:00,11.0,7.6,30.28,NNE,13,1.0,1.0,86,0.00,,,0.00,Wunderground v.1.15,2013-03-02 09:55:00,
2013-03-02 04:00:00,10.8,7.4,30.28,North,355,1.0,2.0,86,0.00,,,0.00,Wunderground v.1.15,2013-03-02 10:00:00,
2013-03-02 04:09:00,10.7,7.3,30.28,North,351,1.0,1.0,86,0.00,,,0.00,Wunderground v.1.15,2013-03-02 10:09:00,
2013-03-02 04:14:00,10.4,6.8,30.28,North,355,0.0,1.0,85,0.00,,,0.00,Wunderground v.1.15,2013-03-02 10:14:00,
2013-03-02 04:19:00,10.1,6.7,30.27,North,350,0.0,0.0,86,0.00,,,0.00,Wunderground v.1.15,2013-03-02 10:19:00,
2013-03-02 04:25:00,10.0,6.6,30.28,North,360,1.0,1.0,86,0.00,,,0.00,Wunderground v.1.15,2013-03-02 10:25:00,
2013-03-02 04:35:00,10.0,6.9,30.28,NNW,346,1.0,2.0,87,0.00,,,0.00,Wunderground v.1.15,2013-03-02 10:35:00,
2013-03-02 04:40:00,10.0,6.9,30.28,North,355,1.0,5.0,87,0.00,,,0.00,Wunderground v.1.15,2013-03-02 10:40:00,
2013-03-02 04:49:00,10.0,6.9,30.28,North,355,1.0,5.0,87,0.00,,,0.00,Wunderground v.1.15,2013-03-02 10:49:00,
2013-03-02 04:54:00,10.1,7.0,30.28,North,360,2.0,5.0,87,0.00,,,0.00,Wunderground v.1.15,2013-03-02 10:54:00,
2013-03-02 05:00:00,10.3,7.2,30.28,North,5,2.0,2.0,87,0.00,,,0.00,Wunderground v.1.15,2013-03-02 11:00:00,
2013-03-02 05:04:00,10.3,7.2,30.29,North,360,1.0,2.0,87,0.00,,,0.00,Wunderground v.1.15,2013-03-02 11:04:00,
2013-03-02 05:09:00,10.3,7.2,30.28,North,360,1.0,1.0,87,0.00,,,0.00,Wunderground v.1.15,2013-03-02 11:09:00,
2013-03-02 05:14:00,10.2,7.1,30.28,North,355,1.0,1.0,87,0.00,,,0.00,Wunderground v.1.15,2013-03-02 11:14:00,
2013-03-02 05:19:00,10.3,7.2,30.28,North,360,1.0,1.0,87,0.00,,,0.00,Wunderground v.1.15,2013-03-02 11:19:00,
2013-03-02 05:24:00,10.3,7.2,30.28,NNE,13,1.0,2.0,87,0.00,,,0.00,Wunderground v.1.15,2013-03-02 11:24:00,
2013-03-02 05:29:00,10.3,7.2,30.29,NNW,344,1.0,1.0,87,0.00,,,0.00,Wunderground v.1.15,2013-03-02 11:29:00,
2013-03-02 05:34:00,10.2,6.8,30.29,North,350,1.0,5.0,86,0.00,,,0.00,Wunderground v.1.15,2013-03-02 11:34:00,
2013-03-02 05:39:00,10.1,6.7,30.29,NNW,347,1.0,5.0,86,0.00,,,0.00,Wunderground v.1.15,2013-03-02 11:39:00,
2013-03-02 05:44:00,10.1,7.0,30.29,NNW,340,1.0,5.0,87,0.00,,,0.00,Wunderground v.1.15,2013-03-02 11:44:00,
2013-03-02 05:49:00,10.1,6.7,30.29,NNW,346,1.0,5.0,86,0.00,,,0.00,Wunderground v.1.15,2013-03-02 11:49:00,
2013-03-02 05:54:00,10.0,6.6,30.29,North,355,1.0,5.0,86,0.00,,,0.00,Wunderground v.1.15,2013-03-02 11:54:00,
2013-03-02 06:00:00,9.9,6.8,30.29,North,355,1.0,1.0,87,0.00,,,0.00,Wunderground v.1.15,2013-03-02 12:00:00,
2013-03-02 06:04:00,10.1,7.0,30.29,NNW,344,2.0,2.0,87,0.00,,,0.00,Wunderground v.1.15,2013-03-02 12:04:00,
2013-03-02 06:09:00,10.3,7.2,30.29,NNW,336,2.0,2.0,87,0.00,,,0.00,Wunderground v.1.15,2013-03-02 12:09:00,
2013-03-02 06:14:00,10.5,7.4,30.29,NNW,342,2.0,3.0,87,0.00,,,0.00,Wunderground v.1.15,2013-03-02 12:14:00,
2013-03-02 06:19:00,10.6,7.5,30.29,North,355,2.0,4.0,87,0.00,,,0.00,Wunderground v.1.15,2013-03-02 12:19:00,
2013-03-02 06:24:00,10.8,7.4,30.30,North,5,3.0,6.0,86,0.00,,,0.00,Wunderground v.1.15,2013-03-02 12:24:00,
2013-03-02 06:29:00,10.9,7.5,30.29,NNW,343,3.0,3.0,86,0.00,,,0.00,Wunderground v.1.15,2013-03-02 12:29:00,
2013-03-02 06:34:00,11.0,7.6,30.30,NNW,340,3.0,3.0,86,0.00,,,0.00,Wunderground v.1.15,2013-03-02 12:34:00,
2013-03-02 06:39:00,11.2,7.8,30.30,NNW,347,3.0,4.0,86,0.00,,,0.00,Wunderground v.1.15,2013-03-02 12:39:00,
2013-03-02 06:44:00,11.3,7.9,30.30,North,355,3.0,4.0,86,0.00,,,0.00,Wunderground v.1.15,2013-03-02 12:44:00,
2013-03-02 06:49:00,11.4,7.8,30.30,NNE,26,3.0,4.0,85,0.00,,,0.00,Wunderground v.1.15,2013-03-02 12:49:00,
2013-03-02 06:54:00,11.6,8.2,30.30,North,360,3.0,4.0,86,0.00,,,0.00,Wunderground v.1.15,2013-03-02 12:54:00,
2013-03-02 07:00:00,11.8,8.2,30.30,North,355,3.0,4.0,85,0.00,,,0.00,Wunderground v.1.15,2013-03-02 13:00:00,
2013-03-02 07:04:00,12.1,8.5,30.30,NW,321,3.0,5.0,85,0.00,,,0.00,Wunderground v.1.15,2013-03-02 13:04:00,
2013-03-02 07:09:00,12.5,8.8,30.30,North,9,3.0,4.0,85,0.00,,,0.00,Wunderground v.1.15,2013-03-02 13:09:00,
2013-03-02 07:14:00,12.7,9.0,30.30,North,355,3.0,4.0,85,0.00,,,0.00,Wunderground v.1.15,2013-03-02 13:14:00,
2013-03-02 07:19:00,13.1,9.2,30.30,NNE,22,2.0,2.0,84,0.00,,,0.00,Wunderground v.1.15,2013-03-02 13:19:00,
2013-03-02 07:24:00,13.5,9.6,30.30,North,355,2.0,2.0,84,0.00,,,0.00,Wunderground v.1.15,2013-03-02 13:24:00,
2013-03-02 07:30:00,14.0,9.8,30.30,North,5,3.0,5.0,83,0.00,,,0.00,Wunderground v.1.15,2013-03-02 13:30:00,
2013-03-02 07:34:00,14.4,10.2,30.30,North,349,3.0,8.0,83,0.00,,,0.00,Wunderground v.1.15,2013-03-02 13:34:00,
2013-03-02 07:40:00,15.0,10.5,30.30,North,5,4.0,4.0,82,0.00,,,0.00,Wunderground v.1.15,2013-03-02 13:40:00,
2013-03-02 07:45:00,15.4,10.6,30.30,NNE,18,4.0,6.0,81,0.00,,,0.00,Wunderground v.1.15,2013-03-02 13:45:00,
2013-03-02 07:50:00,15.8,11.0,30.29,North,350,2.0,6.0,81,0.00,,,0.00,Wunderground v.1.15,2013-03-02 13:50:00,
2013-03-02 07:55:00,16.1,10.7,30.30,NNE,15,3.0,6.0,79,0.00,,,0.00,Wunderground v.1.15,2013-03-02 13:55:00,
2013-03-02 08:00:00,16.4,11.0,30.29,NNE,23,3.0,3.0,79,0.00,,,0.00,Wunderground v.1.15,2013-03-02 14:00:00,
2013-03-02 08:04:00,16.6,10.9,30.30,North,5,3.0,3.0,78,0.00,,,0.00,Wunderground v.1.15,2013-03-02 14:04:00,
2013-03-02 08:10:00,16.5,10.5,30.30,NE,44,4.0,4.0,77,0.00,,,0.00,Wunderground v.1.15,2013-03-02 14:10:00,
2013-03-02 08:15:00,16.3,10.4,30.30,NNE,19,4.0,6.0,77,0.00,,,0.00,Wunderground v.1.15,2013-03-02 14:15:00,
2013-03-02 08:20:00,16.1,10.2,30.30,NNE,13,4.0,5.0,77,0.00,,,0.00,Wunderground v.1.15,2013-03-02 14:20:00,
2013-03-02 08:25:00,15.9,10.0,30.30,NNE,13,5.0,5.0,77,0.00,,,0.00,Wunderground v.1.15,2013-03-02 14:25:00,
2013-03-02 08:30:00,16.0,10.3,30.30,NE,44,4.0,4.0,78,0.00,,,0.00,Wunderground v.1.15,2013-03-02 14:30:00,
2013-03-02 08:35:00,16.3,10.4,30.30,NE,38,3.0,4.0,77,0.00,,,0.00,Wunderground v.1.15,2013-03-02 14:35:00,
2013-03-02 08:39:00,16.5,10.5,30.29,NE,36,3.0,3.0,77,0.00,,,0.00,Wunderground v.1.15,2013-03-02 14:39:00,
2013-03-02 08:44:00,16.7,10.4,30.29,North,360,4.0,5.0,76,0.00,,,0.00,Wunderground v.1.15,2013-03-02 14:44:00,
2013-03-02 08:49:00,16.9,10.6,30.29,NE,42,4.0,4.0,76,0.00,,,0.00,Wunderground v.1.15,2013-03-02 14:49:00,
2013-03-02 08:54:00,17.1,10.5,30.29,NNE,14,4.0,4.0,75,0.00,,,0.00,Wunderground v.1.15,2013-03-02 14:54:00,
2013-03-02 09:00:00,17.3,10.7,30.30,NE,38,4.0,8.0,75,0.00,,,0.00,Wunderground v.1.15,2013-03-02 15:00:00,
2013-03-02 09:05:00,17.6,11.0,30.29,North,5,3.0,8.0,75,0.00,,,0.00,Wunderground v.1.15,2013-03-02 15:05:00,
2013-03-02 09:10:00,17.9,11.0,30.29,NE,47,4.0,4.0,74,0.00,,,0.00,Wunderground v.1.15,2013-03-02 15:10:00,
2013-03-02 09:19:00,18.3,11.4,30.29,NNE,30,5.0,5.0,74,0.00,,,0.00,Wunderground v.1.15,2013-03-02 15:19:00,
2013-03-02 09:24:00,18.8,11.9,30.30,NNW,346,4.0,11.0,74,0.00,,,0.00,Wunderground v.1.15,2013-03-02 15:24:00,
2013-03-02 09:29:00,19.3,11.7,30.29,NNE,25,4.0,4.0,72,0.00,,,0.00,Wunderground v.1.15,2013-03-02 15:29:00,
2013-03-02 09:34:00,19.7,12.4,30.29,NE,45,5.0,6.0,73,0.00,,,0.00,Wunderground v.1.15,2013-03-02 15:34:00,
2013-03-02 09:39:00,20.3,12.7,30.29,NNE,16,3.0,13.0,72,0.00,,,0.00,Wunderground v.1.15,2013-03-02 15:39:00,
2013-03-02 09:44:00,21.0,13.1,30.29,North,355,3.0,13.0,71,0.00,,,0.00,Wunderground v.1.15,2013-03-02 15:44:00,
2013-03-02 09:49:00,21.7,13.4,30.29,NNW,343,3.0,13.0,70,0.00,,,0.00,Wunderground v.1.15,2013-03-02 15:49:00,
2013-03-02 09:54:00,21.7,13.1,30.29,NE,45,4.0,13.0,69,0.00,,,0.00,Wunderground v.1.15,2013-03-02 15:54:00,
2013-03-02 10:00:00,22.0,13.7,30.29,North,11,5.0,5.0,70,0.00,,,0.00,Wunderground v.1.15,2013-03-02 16:00:00,
2013-03-02 10:09:00,23.0,14.3,30.30,NNW,341,3.0,6.0,69,0.00,,,0.00,Wunderground v.1.15,2013-03-02 16:09:00,
2013-03-02 10:14:00,23.0,13.7,30.30,NNW,338,5.0,6.0,67,0.00,,,0.00,Wunderground v.1.15,2013-03-02 16:14:00,
2013-03-02 10:19:00,23.3,14.3,30.30,NNW,340,5.0,6.0,68,0.00,,,0.00,Wunderground v.1.15,2013-03-02 16:19:00,
2013-03-02 10:29:00,23.7,14.3,30.29,NE,34,5.0,5.0,67,0.00,,,0.00,Wunderground v.1.15,2013-03-02 16:29:00,
2013-03-02 10:34:00,23.8,14.4,30.29,North,11,4.0,13.0,67,0.00,,,0.00,Wunderground v.1.15,2013-03-02 16:34:00,
2013-03-02 10:39:00,24.0,14.6,30.29,NNE,22,4.0,4.0,67,0.00,,,0.00,Wunderground v.1.15,2013-03-02 16:39:00,
2013-03-02 10:44:00,24.2,14.5,30.29,NE,42,4.0,13.0,66,0.00,,,0.00,Wunderground v.1.15,2013-03-02 16:44:00,
2013-03-02 10:50:00,24.4,14.7,30.29,NNE,28,5.0,5.0,66,0.00,,,0.00,Wunderground v.1.15,2013-03-02 16:50:00,
2013-03-02 10:55:00,24.3,14.6,30.29,North,350,5.0,13.0,66,0.00,,,0.01,Wunderground v.1.15,2013-03-02 16:55:00,
2013-03-02 11:00:00,24.5,14.8,30.29,North,351,6.0,6.0,66,0.00,,,0.01,Wunderground v.1.15,2013-03-02 17:00:00,
2013-03-02 11:10:00,24.9,15.1,30.29,NE,47,5.0,5.0,66,0.00,,,0.01,Wunderground v.1.15,2013-03-02 17:10:00,
2013-03-02 11:15:00,25.4,15.6,30.29,NE,39,3.0,5.0,66,0.00,,,0.01,Wunderground v.1.15,2013-03-02 17:15:00,
2013-03-02 11:20:00,26.1,15.9,30.29,NE,48,2.0,5.0,65,0.00,,,0.01,Wunderground v.1.15,2013-03-02 17:20:00,
2013-03-02 11:29:00,26.5,15.6,30.29,NNE,29,4.0,4.0,63,0.00,,,0.01,Wunderground v.1.15,2013-03-02 17:29:00,
2013-03-02 11:34:00,26.9,16.0,30.29,NNW,348,4.0,6.0,63,0.00,,,0.01,Wunderground v.1.15,2013-03-02 17:34:00,
2013-03-02 11:39:00,27.3,16.4,30.28,NE,43,4.0,4.0,63,0.00,,,0.01,Wunderground v.1.15,2013-03-02 17:39:00,
2013-03-02 11:44:00,27.4,15.7,30.28,North,355,4.0,4.0,61,0.00,,,0.01,Wunderground v.1.15,2013-03-02 17:44:00,
2013-03-02 11:49:00,27.4,16.4,30.28,NE,38,4.0,5.0,63,0.00,,,0.02,Wunderground v.1.15,2013-03-02 17:49:00,
2013-03-02 11:54:00,27.7,16.7,30.28,NNE,26,4.0,7.0,63,0.00,,,0.02,Wunderground v.1.15,2013-03-02 17:54:00,
2013-03-02 12:00:00,27.9,16.6,30.28,NNE,27,4.0,6.0,62,0.00,,,0.02,Wunderground v.1.15,2013-03-02 18:00:00,
2013-03-02 12:05:00,27.8,15.7,30.28,NNW,338,5.0,6.0,60,0.00,,,0.02,Wunderground v.1.15,2013-03-02 18:05:00,
2013-03-02 12:10:00,27.7,16.0,30.28,NE,49,4.0,5.0,61,0.00,,,0.03,Wunderground v.1.15,2013-03-02 18:10:00,
2013-03-02 12:15:00,27.6,16.3,30.27,NE,41,4.0,5.0,62,0.00,,,0.03,Wunderground v.1.15,2013-03-02 18:15:00,
2013-03-02 12:20:00,27.5,15.8,30.27,NE,42,4.0,4.0,61,0.00,,,0.03,Wunderground v.1.15,2013-03-02 18:20:00,
2013-03-02 12:29:00,27.9,16.9,30.27,NNE,26,4.0,4.0,63,0.00,,,0.03,Wunderground v.1.15,2013-03-02 18:29:00,
2013-03-02 12:34:00,28.7,17.3,30.26,WNW,298,3.0,11.0,62,0.00,,,0.03,Wunderground v.1.15,2013-03-02 18:34:00,
2013-03-02 12:39:00,29.2,17.0,30.26,North,355,3.0,3.0,60,0.00,,,0.03,Wunderground v.1.15,2013-03-02 18:39:00,
2013-03-02 12:44:00,29.1,16.5,30.25,NNW,327,4.0,9.0,59,0.00,,,0.04,Wunderground v.1.15,2013-03-02 18:44:00,
2013-03-02 12:49:00,28.8,16.3,30.25,NE,48,4.0,4.0,59,0.00,,,0.04,Wunderground v.1.15,2013-03-02 18:49:00,
2013-03-02 12:54:00,29.2,17.4,30.25,NNE,20,4.0,5.0,61,0.00,,,0.04,Wunderground v.1.15,2013-03-02 18:54:00,
2013-03-02 13:00:00,29.0,16.8,30.25,NE,52,5.0,5.0,60,0.00,,,0.04,Wunderground v.1.15,2013-03-02 19:00:00,
2013-03-02 13:05:00,29.3,17.5,30.25,North,360,5.0,5.0,61,0.00,,,0.04,Wunderground v.1.15,2013-03-02 19:05:00,
2013-03-02 13:10:00,29.8,17.2,30.25,North,5,4.0,8.0,59,0.00,,,0.04,Wunderground v.1.15,2013-03-02 19:10:00,
2013-03-02 13:15:00,29.5,16.5,30.25,North,360,6.0,8.0,58,0.00,,,0.04,Wunderground v.1.15,2013-03-02 19:15:00,
2013-03-02 13:20:00,29.5,16.5,30.25,North,360,6.0,6.0,58,0.00,,,0.05,Wunderground v.1.15,2013-03-02 19:20:00,
2013-03-02 13:24:00,29.5,16.5,30.25,NNW,347,4.0,6.0,58,0.00,,,0.05,Wunderground v.1.15,2013-03-02 19:24:00,
2013-03-02 13:29:00,29.7,16.7,30.25,NNE,26,4.0,4.0,58,0.00,,,0.05,Wunderground v.1.15,2013-03-02 19:29:00,
2013-03-02 13:35:00,30.1,17.1,30.25,WNW,300,4.0,5.0,58,0.00,,,0.05,Wunderground v.1.15,2013-03-02 19:35:00,
2013-03-02 13:40:00,29.9,16.5,30.25,NNW,348,4.0,4.0,57,0.00,,,0.05,Wunderground v.1.15,2013-03-02 19:40:00,
2013-03-02 13:45:00,30.0,16.2,30.25,NNE,21,4.0,11.0,56,0.00,,,0.05,Wunderground v.1.15,2013-03-02 19:45:00,
2013-03-02 13:50:00,30.1,16.3,30.25,North,349,4.0,11.0,56,0.00,,,0.05,Wunderground v.1.15,2013-03-02 19:50:00,
2013-03-02 13:55:00,29.9,16.1,30.25,NW,307,5.0,11.0,56,0.00,,,0.05,Wunderground v.1.15,2013-03-02 19:55:00,
2013-03-02 14:00:00,29.9,16.5,30.24,NNW,348,4.0,8.0,57,0.00,,,0.06,Wunderground v.1.15,2013-03-02 20:00:00,
2013-03-02 14:05:00,30.1,17.1,30.24,WNW,298,4.0,8.0,58,0.00,,,0.06,Wunderground v.1.15,2013-03-02 20:05:00,
2013-03-02 14:09:00,30.0,16.6,30.24,North,350,5.0,8.0,57,0.00,,,0.06,Wunderground v.1.15,2013-03-02 20:09:00,
2013-03-02 14:14:00,29.7,15.5,30.25,NNW,332,6.0,8.0,55,0.00,,,0.06,Wunderground v.1.15,2013-03-02 20:14:00,
2013-03-02 14:19:00,30.1,17.1,30.24,NNE,17,4.0,4.0,58,0.00,,,0.06,Wunderground v.1.15,2013-03-02 20:19:00,
2013-03-02 14:24:00,30.4,15.3,30.24,NNW,338,3.0,6.0,53,0.00,,,0.06,Wunderground v.1.15,2013-03-02 20:24:00,
2013-03-02 14:29:00,30.2,16.4,30.24,NNW,344,4.0,7.0,56,0.00,,,0.06,Wunderground v.1.15,2013-03-02 20:29:00,
2013-03-02 14:39:00,30.1,15.4,30.24,North,360,4.0,11.0,54,0.00,,,0.07,Wunderground v.1.15,2013-03-02 20:39:00,
2013-03-02 14:44:00,29.8,15.6,30.24,NW,321,4.0,11.0,55,0.00,,,0.07,Wunderground v.1.15,2013-03-02 20:44:00,
2013-03-02 14:49:00,29.6,15.4,30.23,NNW,339,4.0,4.0,55,0.00,,,0.07,Wunderground v.1.15,2013-03-02 20:49:00,
2013-03-02 14:54:00,29.6,15.4,30.24,NNW,338,3.0,5.0,55,0.00,,,0.07,Wunderground v.1.15,2013-03-02 20:54:00,
2013-03-02 15:00:00,29.3,15.5,30.23,WNW,303,4.0,6.0,56,0.00,,,0.07,Wunderground v.1.15,2013-03-02 21:00:00,
2013-03-02 15:05:00,29.3,15.1,30.23,NE,53,4.0,6.0,55,0.00,,,0.07,Wunderground v.1.15,2013-03-02 21:05:00,
2013-03-02 15:10:00,29.6,15.8,30.23,North,5,3.0,3.0,56,0.00,,,0.07,Wunderground v.1.15,2013-03-02 21:10:00,
2013-03-02 15:15:00,29.5,14.9,30.23,North,360,2.0,7.0,54,0.00,,,0.07,Wunderground v.1.15,2013-03-02 21:15:00,
2013-03-02 15:20:00,29.0,14.0,30.23,North,5,4.0,4.0,53,0.00,,,0.07,Wunderground v.1.15,2013-03-02 21:20:00,
2013-03-02 15:25:00,28.6,14.5,30.23,North,355,5.0,5.0,55,0.00,,,0.07,Wunderground v.1.15,2013-03-02 21:25:00,
2013-03-02 15:29:00,28.4,14.3,30.23,NNW,339,4.0,4.0,55,0.00,,,0.07,Wunderground v.1.15,2013-03-02 21:29:00,
2013-03-02 15:34:00,28.2,14.5,30.23,NNW,344,3.0,10.0,56,0.00,,,0.07,Wunderground v.1.15,2013-03-02 21:34:00,
2013-03-02 15:44:00,28.0,14.7,30.23,NNW,338,2.0,3.0,57,0.00,,,0.07,Wunderground v.1.15,2013-03-02 21:44:00,
2013-03-02 15:49:00,27.9,14.2,30.23,North,355,3.0,3.0,56,0.00,,,0.07,Wunderground v.1.15,2013-03-02 21:49:00,
2013-03-02 15:54:00,27.8,14.5,30.23,NNW,344,3.0,10.0,57,0.00,,,0.07,Wunderground v.1.15,2013-03-02 21:54:00,
2013-03-02 16:00:00,27.8,14.1,30.22,NNW,348,2.0,2.0,56,0.00,,,0.07,Wunderground v.1.15,2013-03-02 22:00:00,
2013-03-02 16:04:00,27.8,14.1,30.22,North,350,2.0,2.0,56,0.00,,,0.07,Wunderground v.1.15,2013-03-02 22:04:00,
2013-03-02 16:09:00,27.7,14.0,30.23,NW,315,2.0,2.0,56,0.00,,,0.07,Wunderground v.1.15,2013-03-02 22:09:00,
2013-03-02 16:19:00,27.2,13.6,30.23,NNW,333,2.0,2.0,56,0.00,,,0.07,Wunderground v.1.15,2013-03-02 22:19:00,
2013-03-02 16:24:00,26.9,13.7,30.23,North,360,2.0,5.0,57,0.00,,,0.07,Wunderground v.1.15,2013-03-02 22:24:00,
2013-03-02 16:34:00,26.6,13.4,30.23,North,351,2.0,11.0,57,0.00,,,0.07,Wunderground v.1.15,2013-03-02 22:34:00,
2013-03-02 16:39:00,26.4,13.2,30.23,NNE,12,2.0,2.0,57,0.00,,,0.07,Wunderground v.1.15,2013-03-02 22:39:00,
2013-03-02 16:45:00,26.3,13.1,30.23,NNW,328,2.0,11.0,57,0.00,,,0.07,Wunderground v.1.15,2013-03-02 22:45:00,
2013-03-02 16:54:00,26.1,12.9,30.23,North,350,3.0,11.0,57,0.00,,,0.07,Wunderground v.1.15,2013-03-02 22:54:00,
2013-03-02 17:00:00,26.0,13.2,30.23,North,355,2.0,2.0,58,0.00,,,0.07,Wunderground v.1.15,2013-03-02 23:00:00,
2013-03-02 17:05:00,25.9,12.7,30.23,North,350,2.0,2.0,57,0.00,,,0.07,Wunderground v.1.15,2013-03-02 23:05:00,
2013-03-02 17:10:00,25.8,13.0,30.23,North,355,1.0,3.0,58,0.00,,,0.07,Wunderground v.1.15,2013-03-02 23:10:00,
2013-03-02 17:19:00,25.4,13.1,30.23,NNW,331,0.0,2.0,59,0.00,,,0.07,Wunderground v.1.15,2013-03-02 23:19:00,
2013-03-02 17:24:00,25.2,12.5,30.23,NNW,334,0.0,2.0,58,0.00,,,0.07,Wunderground v.1.15,2013-03-02 23:24:00,
2013-03-02 17:29:00,25.1,12.8,30.23,NE,34,0.0,0.0,59,0.00,,,0.07,Wunderground v.1.15,2013-03-02 23:29:00,
2013-03-02 17:34:00,24.9,12.6,30.23,NE,34,0.0,8.0,59,0.00,,,0.07,Wunderground v.1.15,2013-03-02 23:34:00,
2013-03-02 17:39:00,24.8,12.9,30.23,NE,34,0.0,8.0,60,0.00,,,0.07,Wunderground v.1.15,2013-03-02 23:39:00,
2013-03-02 17:44:00,24.5,12.6,30.24,NNW,331,0.0,8.0,60,0.00,,,0.07,Wunderground v.1.15,2013-03-02 23:44:00,
2013-03-02 17:49:00,24.2,12.3,30.24,NNW,331,0.0,8.0,60,0.00,,,0.07,Wunderground v.1.15,2013-03-02 23:49:00,
2013-03-02 17:54:00,24.0,12.5,30.24,NNW,331,0.0,8.0,61,0.00,,,0.07,Wunderground v.1.15,2013-03-02 23:54:00,
2013-03-02 18:00:00,23.6,12.8,30.24,NNW,331,0.0,0.0,63,0.00,,,0.07,Wunderground v.1.15,2013-03-03 00:00:00,
2013-03-02 18:05:00,23.3,12.6,30.24,NNW,331,0.0,0.0,63,0.00,,,0.07,Wunderground v.1.15,2013-03-03 00:05:00,
2013-03-02 18:10:00,22.9,12.5,30.24,NNW,331,0.0,0.0,64,0.00,,,0.07,Wunderground v.1.15,2013-03-03 00:10:00,
2013-03-02 18:15:00,22.5,12.5,30.24,NNW,331,0.0,0.0,65,0.00,,,0.07,Wunderground v.1.15,2013-03-03 00:15:00,
2013-03-02 18:24:00,21.6,12.3,30.24,NNW,331,0.0,0.0,67,0.00,,,0.07,Wunderground v.1.15,2013-03-03 00:24:00,
2013-03-02 18:29:00,21.2,11.9,30.24,NNW,331,0.0,0.0,67,0.00,,,0.07,Wunderground v.1.15,2013-03-03 00:29:00,
2013-03-02 18:34:00,20.8,11.9,30.24,NNW,331,0.0,6.0,68,0.00,,,0.07,Wunderground v.1.15,2013-03-03 00:34:00,
2013-03-02 18:39:00,20.4,11.8,30.24,NNW,331,0.0,6.0,69,0.00,,,0.07,Wunderground v.1.15,2013-03-03 00:39:00,
2013-03-02 18:44:00,19.9,11.7,30.24,NNW,331,0.0,6.0,70,0.00,,,0.07,Wunderground v.1.15,2013-03-03 00:44:00,
2013-03-02 18:49:00,19.7,11.5,30.23,NNW,331,0.0,6.0,70,0.00,,,0.07,Wunderground v.1.15,2013-03-03 00:49:00,
2013-03-02 18:54:00,19.2,11.3,30.23,NNW,331,0.0,6.0,71,0.00,,,0.07,Wunderground v.1.15,2013-03-03 00:54:00,
2013-03-02 19:00:00,18.8,10.9,30.23,NNW,331,0.0,0.0,71,0.00,,,0.07,Wunderground v.1.15,2013-03-03 01:00:00,
2013-03-02 19:09:00,18.0,10.8,30.23,NNW,331,0.0,0.0,73,0.00,,,0.07,Wunderground v.1.15,2013-03-03 01:09:00,
2013-03-02 19:14:00,17.6,11.0,30.22,NNW,331,0.0,0.0,75,0.00,,,0.07,Wunderground v.1.15,2013-03-03 01:14:00,
2013-03-02 19:19:00,17.3,11.0,30.22,NNW,331,0.0,0.0,76,0.00,,,0.07,Wunderground v.1.15,2013-03-03 01:19:00,
2013-03-02 19:25:00,16.9,10.6,30.22,NNW,331,0.0,0.0,76,0.00,,,0.07,Wunderground v.1.15,2013-03-03 01:25:00,
2013-03-02 19:35:00,16.4,10.7,30.23,NNW,331,0.0,0.0,78,0.00,,,0.07,Wunderground v.1.15,2013-03-03 01:35:00,
2013-03-02 19:40:00,16.2,10.5,30.23,NNW,331,0.0,0.0,78,0.00,,,0.07,Wunderground v.1.15,2013-03-03 01:40:00,
2013-03-02 19:45:00,16.0,10.3,30.23,NNW,331,0.0,0.0,78,0.00,,,0.07,Wunderground v.1.15,2013-03-03 01:45:00,
2013-03-02 19:50:00,15.8,10.2,30.23,NNW,331,0.0,0.0,78,0.00,,,0.07,Wunderground v.1.15,2013-03-03 01:50:00,
2013-03-02 20:00:00,15.4,10.1,30.24,NNW,331,0.0,0.0,79,0.00,,,0.07,Wunderground v.1.15,2013-03-03 02:00:00,